sat.trackr.live / text

‹ back to catalog

STARLINK-34201

NORAD 64077 · 2025-107P

PAYLOAD ACTIVE UNKNOWN

§ Identity

Operator
Country
US
Launch date
2025-05-21
Launch site
AFETR
Launch vehicle
Mass (kg)
RCS (m²)

Purposes: comms

External: N2YO · Heavens-Above · Gunter

§ Orbital elements

Epoch: 2026-05-24T23:20:28.000320Z

Period
94.27 min
Inclination
43.0005°
Eccentricity
0.0001592
Mean motion
15.27575360 rev/d
Perigee alt
482.0 km
Apogee alt
484.2 km
Semi-major
6,861.2 km
B*
5.3782e-4
RAAN
131.0261°
Arg perigee
275.1787°
Mean anomaly
84.8883°
Rev number
5,669

§ Raw data

STARLINK-342011 64077U 25107P   26144.97254630  .00014565  00000+0  53782-3 0  99902 64077  43.0005 131.0261 0001592 275.1787  84.8883 15.27575360 56692

JSON: /api/v1/satellites/64077 · /tle

For live sub-satellite position, see the globe view (requires WebGL).

§ Visibility from observer

Set your observer location to see the next 7 days of passes ≥ 10°. The values pass through the URL so the page stays shareable.

No JS? Fill the form by hand. The geolocation button needs JavaScript.